Time,TemperatureF,DewpointF,PressureIn,WindDirection,WindDirectionDegrees,WindSpeedMPH,WindSpeedGustMPH,Humidity,HourlyPrecipIn,Conditions,Clouds,dailyrainin,SoftwareType,DateUTC
2013-03-24 00:00:00,38.7,23.4,30.06,NNE,30,3.4,5.5,54,0.00,,,0.00,WX3IN1Plus v1.30,2013-03-24 04:00:00,
2013-03-24 00:01:00,38.6,22.9,30.07,NNE,16,4.8,6.7,53,0.00,,,0.00,WX3IN1Plus v1.30,2013-03-24 04:01:00,
2013-03-24 00:06:00,38.5,22.9,30.06,East,80,3.9,8.3,53,0.00,,,0.00,WX3IN1Plus v1.30,2013-03-24 04:06:00,
2013-03-24 00:11:00,38.2,22.7,30.06,NNE,33,2.9,6.0,53,0.00,,,0.00,WX3IN1Plus v1.30,2013-03-24 04:11:00,
2013-03-24 00:16:00,38.3,22.9,30.06,NE,45,5.0,8.4,53,0.00,,,0.00,WX3IN1Plus v1.30,2013-03-24 04:16:00,
2013-03-24 00:21:00,38.2,22.7,30.06,ENE,70,3.0,6.2,53,0.00,,,0.00,WX3IN1Plus v1.30,2013-03-24 04:21:00,
2013-03-24 00:26:00,38.0,22.5,30.06,North,350,2.4,6.5,53,0.00,,,0.00,WX3IN1Plus v1.30,2013-03-24 04:26:00,
2013-03-24 00:31:00,37.8,22.1,30.07,NNE,21,4.1,6.3,53,0.00,,,0.00,WX3IN1Plus v1.30,2013-03-24 04:31:00,
2013-03-24 00:36:00,37.6,22.5,30.07,ENE,71,1.8,3.6,54,0.00,,,0.00,WX3IN1Plus v1.30,2013-03-24 04:36:00,
2013-03-24 00:41:00,37.6,22.5,30.07,NE,36,0.0,5.0,54,0.00,,,0.00,WX3IN1Plus v1.30,2013-03-24 04:41:00,
2013-03-24 00:46:00,37.4,22.1,30.07,NNW,341,0.0,0.8,54,0.00,,,0.00,WX3IN1Plus v1.30,2013-03-24 04:46:00,
2013-03-24 00:51:00,37.2,22.0,30.07,NNE,32,0.0,4.8,54,0.00,,,0.00,WX3IN1Plus v1.30,2013-03-24 04:51:00,
2013-03-24 00:56:00,37.0,21.8,30.07,NNE,32,0.0,0.0,54,0.00,,,0.00,WX3IN1Plus v1.30,2013-03-24 04:56:00,
2013-03-24 01:01:00,37.1,22.0,30.06,North,11,0.0,4.4,54,0.00,,,0.00,WX3IN1Plus v1.30,2013-03-24 05:01:00,
2013-03-24 01:07:00,36.9,22.1,30.06,NNE,32,0.0,3.2,55,0.00,,,0.00,WX3IN1Plus v1.30,2013-03-24 05:07:00,
2013-03-24 01:12:00,36.7,22.0,30.06,NE,50,0.0,0.8,55,0.00,,,0.00,WX3IN1Plus v1.30,2013-03-24 05:12:00,
2013-03-24 01:17:00,36.5,21.8,30.07,NE,50,0.0,0.0,55,0.00,,,0.00,WX3IN1Plus v1.30,2013-03-24 05:17:00,
2013-03-24 01:22:00,36.3,21.4,30.07,NE,50,0.0,0.0,55,0.00,,,0.00,WX3IN1Plus v1.30,2013-03-24 05:22:00,
2013-03-24 01:27:00,36.0,21.8,30.07,NE,50,0.0,0.0,56,0.00,,,0.00,WX3IN1Plus v1.30,2013-03-24 05:27:00,
2013-03-24 01:32:00,35.7,21.4,30.07,NE,50,0.0,0.0,56,0.00,,,0.00,WX3IN1Plus v1.30,2013-03-24 05:32:00,
2013-03-24 01:37:00,35.2,22.0,30.06,NE,50,0.0,0.0,58,0.00,,,0.00,WX3IN1Plus v1.30,2013-03-24 05:37:00,
2013-03-24 01:42:00,34.6,21.8,30.05,NE,50,0.0,0.0,59,0.00,,,0.00,WX3IN1Plus v1.30,2013-03-24 05:42:00,
2013-03-24 01:47:00,34.2,21.2,30.05,NNE,21,0.0,4.3,59,0.00,,,0.00,WX3IN1Plus v1.30,2013-03-24 05:47:00,
2013-03-24 01:52:00,34.3,21.2,30.05,NNE,21,0.0,0.0,59,0.00,,,0.00,WX3IN1Plus v1.30,2013-03-24 05:52:00,
2013-03-24 01:57:00,34.3,21.2,30.06,NNE,21,0.0,0.0,59,0.00,,,0.00,WX3IN1Plus v1.30,2013-03-24 05:57:00,
2013-03-24 02:02:00,34.1,21.1,30.06,NNE,21,0.0,0.0,59,0.00,,,0.00,WX3IN1Plus v1.30,2013-03-24 06:02:00,
2013-03-24 02:07:00,34.1,21.1,30.07,NNE,21,0.0,0.0,59,0.00,,,0.00,WX3IN1Plus v1.30,2013-03-24 06:07:00,
2013-03-24 02:12:00,33.7,21.2,30.06,NNE,21,0.0,0.0,60,0.00,,,0.00,WX3IN1Plus v1.30,2013-03-24 06:12:00,
2013-03-24 02:17:00,33.4,21.4,30.06,NNE,21,0.0,0.0,61,0.00,,,0.00,WX3IN1Plus v1.30,2013-03-24 06:17:00,
2013-03-24 02:22:00,33.2,21.2,30.06,NNE,21,0.0,0.0,61,0.00,,,0.00,WX3IN1Plus v1.30,2013-03-24 06:22:00,
2013-03-24 02:27:00,32.9,21.1,30.06,NNE,21,0.0,0.0,61,0.00,,,0.00,WX3IN1Plus v1.30,2013-03-24 06:27:00,
2013-03-24 02:32:00,32.7,21.1,30.06,NNE,21,0.0,0.0,62,0.00,,,0.00,WX3IN1Plus v1.30,2013-03-24 06:32:00,
2013-03-24 02:37:00,32.5,20.7,30.05,NNE,21,0.0,0.0,62,0.00,,,0.00,WX3IN1Plus v1.30,2013-03-24 06:37:00,
2013-03-24 02:42:00,32.0,21.1,30.05,NNE,21,0.0,0.0,63,0.00,,,0.00,WX3IN1Plus v1.30,2013-03-24 06:42:00,
2013-03-24 02:47:00,31.7,21.2,30.05,NNE,21,0.0,0.0,64,0.00,,,0.00,WX3IN1Plus v1.30,2013-03-24 06:47:00,
2013-03-24 02:52:00,31.4,21.2,30.05,NNE,21,0.0,0.0,65,0.00,,,0.00,WX3IN1Plus v1.30,2013-03-24 06:52:00,
2013-03-24 02:58:00,31.0,21.2,30.05,NNE,21,0.0,0.0,66,0.00,,,0.00,WX3IN1Plus v1.30,2013-03-24 06:58:00,
2013-03-24 03:03:00,30.5,21.2,30.05,NNE,21,0.0,0.0,67,0.00,,,0.00,WX3IN1Plus v1.30,2013-03-24 07:03:00,
2013-03-24 03:08:00,30.1,20.7,30.05,NNE,21,0.0,0.0,67,0.00,,,0.00,WX3IN1Plus v1.30,2013-03-24 07:08:00,
2013-03-24 03:13:00,30.0,21.2,30.05,NNE,21,0.0,0.0,69,0.00,,,0.00,WX3IN1Plus v1.30,2013-03-24 07:13:00,
2013-03-24 03:18:00,29.6,21.1,30.05,NNE,21,0.0,0.0,69,0.00,,,0.00,WX3IN1Plus v1.30,2013-03-24 07:18:00,
2013-03-24 03:23:00,29.4,21.1,30.05,NNE,21,0.0,0.0,70,0.00,,,0.00,WX3IN1Plus v1.30,2013-03-24 07:23:00,
2013-03-24 03:28:00,29.2,21.1,30.04,NNE,21,0.0,0.0,70,0.00,,,0.00,WX3IN1Plus v1.30,2013-03-24 07:28:00,
2013-03-24 03:33:00,29.1,21.2,30.04,NNE,21,0.0,0.0,71,0.00,,,0.00,WX3IN1Plus v1.30,2013-03-24 07:33:00,
2013-03-24 03:38:00,29.2,21.4,30.04,NNE,21,0.0,0.0,71,0.00,,,0.00,WX3IN1Plus v1.30,2013-03-24 07:38:00,
2013-03-24 03:43:00,29.3,21.4,30.05,NNE,21,0.0,0.0,71,0.00,,,0.00,WX3IN1Plus v1.30,2013-03-24 07:43:00,
2013-03-24 03:48:00,29.4,21.4,30.05,NNE,21,0.0,0.0,71,0.00,,,0.00,WX3IN1Plus v1.30,2013-03-24 07:48:00,
2013-03-24 03:53:00,29.2,21.4,30.05,NNE,21,0.0,0.0,71,0.00,,,0.00,WX3IN1Plus v1.30,2013-03-24 07:53:00,
2013-03-24 03:58:00,29.1,21.2,30.06,NNE,21,0.0,0.0,71,0.00,,,0.00,WX3IN1Plus v1.30,2013-03-24 07:58:00,
2013-03-24 04:03:00,29.0,21.2,30.06,NNE,21,0.0,0.0,71,0.00,,,0.00,WX3IN1Plus v1.30,2013-03-24 08:03:00,
2013-03-24 04:08:00,28.7,21.1,30.07,NNE,21,0.0,0.0,72,0.00,,,0.00,WX3IN1Plus v1.30,2013-03-24 08:08:00,
2013-03-24 04:13:00,28.6,21.1,30.07,NNE,21,0.0,0.0,72,0.00,,,0.00,WX3IN1Plus v1.30,2013-03-24 08:13:00,
2013-03-24 04:18:00,28.3,20.7,30.07,NNE,21,0.0,0.0,72,0.00,,,0.00,WX3IN1Plus v1.30,2013-03-24 08:18:00,
2013-03-24 04:23:00,28.0,20.3,30.07,NNE,21,0.0,0.0,72,0.00,,,0.00,WX3IN1Plus v1.30,2013-03-24 08:23:00,
2013-03-24 04:28:00,27.8,20.7,30.07,NNE,21,0.0,0.0,73,0.00,,,0.00,WX3IN1Plus v1.30,2013-03-24 08:28:00,
2013-03-24 04:33:00,27.7,20.7,30.08,NNE,21,0.0,0.0,73,0.00,,,0.00,WX3IN1Plus v1.30,2013-03-24 08:33:00,
2013-03-24 04:38:00,27.6,20.7,30.07,NNE,21,0.0,0.0,74,0.00,,,0.00,WX3IN1Plus v1.30,2013-03-24 08:38:00,
2013-03-24 04:43:00,27.5,20.5,30.08,NNE,21,0.0,0.0,74,0.00,,,0.00,WX3IN1Plus v1.30,2013-03-24 08:43:00,
2013-03-24 04:48:00,27.4,20.5,30.08,NNE,21,0.0,0.0,74,0.00,,,0.00,WX3IN1Plus v1.30,2013-03-24 08:48:00,
2013-03-24 04:53:00,27.2,20.5,30.07,NNE,21,0.0,0.0,75,0.00,,,0.00,WX3IN1Plus v1.30,2013-03-24 08:53:00,
2013-03-24 04:58:00,27.1,20.5,30.07,NNE,21,0.0,0.0,75,0.00,,,0.00,WX3IN1Plus v1.30,2013-03-24 08:58:00,
2013-03-24 05:03:00,27.2,20.5,30.07,NNE,21,0.0,0.0,75,0.00,,,0.00,WX3IN1Plus v1.30,2013-03-24 09:03:00,
2013-03-24 05:08:00,27.3,20.5,30.07,NNE,21,0.0,0.0,75,0.00,,,0.00,WX3IN1Plus v1.30,2013-03-24 09:08:00,
2013-03-24 05:13:00,27.1,20.5,30.07,NNE,21,0.0,0.0,75,0.00,,,0.00,WX3IN1Plus v1.30,2013-03-24 09:13:00,
2013-03-24 05:18:00,27.4,21.2,30.07,NNE,21,0.0,0.0,76,0.00,,,0.00,WX3IN1Plus v1.30,2013-03-24 09:18:00,
2013-03-24 05:23:00,27.4,20.7,30.08,NNE,21,0.0,0.0,75,0.00,,,0.00,WX3IN1Plus v1.30,2013-03-24 09:23:00,
2013-03-24 05:28:00,27.6,21.4,30.07,NNE,21,0.0,0.0,76,0.00,,,0.00,WX3IN1Plus v1.30,2013-03-24 09:28:00,
2013-03-24 05:33:00,27.5,21.2,30.07,NNE,21,0.0,0.0,76,0.00,,,0.00,WX3IN1Plus v1.30,2013-03-24 09:33:00,
2013-03-24 05:38:00,27.4,21.2,30.07,NNE,21,0.0,0.0,76,0.00,,,0.00,WX3IN1Plus v1.30,2013-03-24 09:38:00,
2013-03-24 05:43:00,27.3,21.1,30.07,NNE,21,0.0,0.0,76,0.00,,,0.00,WX3IN1Plus v1.30,2013-03-24 09:43:00,
2013-03-24 05:48:00,27.4,21.2,30.07,NNE,21,0.0,0.0,76,0.00,,,0.00,WX3IN1Plus v1.30,2013-03-24 09:48:00,
2013-03-24 05:53:00,27.4,21.2,30.06,NNE,21,0.0,0.0,76,0.00,,,0.00,WX3IN1Plus v1.30,2013-03-24 09:53:00,
2013-03-24 05:58:00,27.3,21.1,30.06,NNE,21,0.0,0.0,76,0.00,,,0.00,WX3IN1Plus v1.30,2013-03-24 09:58:00,
2013-03-24 06:03:00,27.3,21.1,30.05,NNE,21,0.0,0.0,76,0.00,,,0.00,WX3IN1Plus v1.30,2013-03-24 10:03:00,
2013-03-24 06:08:00,27.3,21.1,30.05,NNE,21,0.0,0.0,76,0.00,,,0.00,WX3IN1Plus v1.30,2013-03-24 10:08:00,
2013-03-24 06:13:00,27.2,21.1,30.05,NNE,21,0.0,0.0,76,0.00,,,0.00,WX3IN1Plus v1.30,2013-03-24 10:13:00,
2013-03-24 06:18:00,27.6,21.4,30.05,NNE,21,0.0,0.0,76,0.00,,,0.00,WX3IN1Plus v1.30,2013-03-24 10:18:00,
2013-03-24 06:23:00,27.8,21.8,30.05,NNE,21,0.0,0.0,76,0.00,,,0.00,WX3IN1Plus v1.30,2013-03-24 10:23:00,
2013-03-24 06:28:00,27.7,21.8,30.05,NNE,21,0.0,0.0,76,0.00,,,0.00,WX3IN1Plus v1.30,2013-03-24 10:28:00,
2013-03-24 06:33:00,27.7,21.8,30.05,NNE,21,0.0,0.0,76,0.00,,,0.00,WX3IN1Plus v1.30,2013-03-24 10:33:00,
2013-03-24 06:38:00,27.9,21.8,30.05,NNE,21,0.0,0.0,76,0.00,,,0.00,WX3IN1Plus v1.30,2013-03-24 10:38:00,
2013-03-24 06:43:00,27.9,21.8,30.05,NNE,21,0.0,0.0,76,0.00,,,0.00,WX3IN1Plus v1.30,2013-03-24 10:43:00,
2013-03-24 06:48:00,27.9,21.8,30.05,NNE,21,0.0,0.0,76,0.00,,,0.00,WX3IN1Plus v1.30,2013-03-24 10:48:00,
2013-03-24 06:53:00,27.7,21.8,30.05,NNE,21,0.0,0.0,76,0.00,,,0.00,WX3IN1Plus v1.30,2013-03-24 10:53:00,
2013-03-24 06:58:00,27.6,21.4,30.05,NNE,21,0.0,0.0,76,0.00,,,0.00,WX3IN1Plus v1.30,2013-03-24 10:58:00,
2013-03-24 07:03:00,27.9,22.0,30.05,NNE,21,0.0,0.0,77,0.00,,,0.00,WX3IN1Plus v1.30,2013-03-24 11:03:00,
2013-03-24 07:09:00,27.9,22.0,30.05,NNE,21,0.0,0.0,77,0.00,,,0.00,WX3IN1Plus v1.30,2013-03-24 11:09:00,
2013-03-24 07:14:00,27.9,22.0,30.06,NNE,21,0.0,0.0,77,0.00,,,0.00,WX3IN1Plus v1.30,2013-03-24 11:14:00,
2013-03-24 07:19:00,27.9,22.0,30.06,NNE,21,0.0,0.0,77,0.00,,,0.00,WX3IN1Plus v1.30,2013-03-24 11:19:00,
2013-03-24 07:24:00,27.8,22.1,30.07,NNE,21,0.0,0.0,78,0.00,,,0.00,WX3IN1Plus v1.30,2013-03-24 11:24:00,
2013-03-24 07:29:00,27.8,22.1,30.07,NNE,21,0.0,0.0,78,0.00,,,0.00,WX3IN1Plus v1.30,2013-03-24 11:29:00,
2013-03-24 07:34:00,28.2,22.5,30.06,NNE,21,0.0,0.0,78,0.00,,,0.00,WX3IN1Plus v1.30,2013-03-24 11:34:00,
2013-03-24 07:39:00,28.2,22.5,30.06,NNE,21,0.0,0.0,78,0.00,,,0.00,WX3IN1Plus v1.30,2013-03-24 11:39:00,
2013-03-24 07:44:00,28.2,22.7,30.07,NNE,21,0.0,0.0,79,0.00,,,0.00,WX3IN1Plus v1.30,2013-03-24 11:44:00,
2013-03-24 07:49:00,28.4,22.7,30.06,NNE,21,0.0,0.0,78,0.00,,,0.00,WX3IN1Plus v1.30,2013-03-24 11:49:00,
2013-03-24 07:54:00,28.3,22.7,30.06,NNE,21,0.0,0.0,78,0.00,,,0.00,WX3IN1Plus v1.30,2013-03-24 11:54:00,
2013-03-24 07:59:00,28.7,22.9,30.06,NNE,21,0.0,0.0,78,0.00,,,0.00,WX3IN1Plus v1.30,2013-03-24 11:59:00,
2013-03-24 08:04:00,28.7,22.9,30.06,NNE,21,0.0,0.0,78,0.00,,,0.00,WX3IN1Plus v1.30,2013-03-24 12:04:00,
2013-03-24 08:09:00,29.1,23.4,30.05,NNE,21,0.0,0.0,78,0.00,,,0.00,WX3IN1Plus v1.30,2013-03-24 12:09:00,
2013-03-24 08:14:00,29.4,23.4,30.05,NNE,21,0.0,0.0,77,0.00,,,0.00,WX3IN1Plus v1.30,2013-03-24 12:14:00,
2013-03-24 08:19:00,29.7,23.6,30.06,NNE,21,0.0,0.0,76,0.00,,,0.00,WX3IN1Plus v1.30,2013-03-24 12:19:00,
2013-03-24 08:24:00,29.9,23.6,30.06,NNE,21,0.0,0.0,76,0.00,,,0.00,WX3IN1Plus v1.30,2013-03-24 12:24:00,
2013-03-24 08:29:00,30.4,24.3,30.06,NNE,21,0.0,0.0,76,0.00,,,0.00,WX3IN1Plus v1.30,2013-03-24 12:29:00,
2013-03-24 08:34:00,30.7,23.9,30.06,NNE,21,0.0,0.0,75,0.00,,,0.00,WX3IN1Plus v1.30,2013-03-24 12:34:00,
2013-03-24 08:39:00,31.1,24.1,30.06,NNE,21,0.0,0.0,74,0.00,,,0.00,WX3IN1Plus v1.30,2013-03-24 12:39:00,
2013-03-24 08:44:00,31.5,24.3,30.06,NNE,21,0.0,0.0,73,0.00,,,0.00,WX3IN1Plus v1.30,2013-03-24 12:44:00,
2013-03-24 08:49:00,32.0,24.1,30.06,NNE,21,0.0,0.0,72,0.00,,,0.00,WX3IN1Plus v1.30,2013-03-24 12:49:00,
2013-03-24 08:54:00,32.6,24.7,30.05,NNE,21,0.0,0.0,72,0.00,,,0.00,WX3IN1Plus v1.30,2013-03-24 12:54:00,
2013-03-24 08:59:00,32.9,24.1,30.05,NNE,21,0.0,0.0,70,0.00,,,0.00,WX3IN1Plus v1.30,2013-03-24 12:59:00,
2013-03-24 09:04:00,33.7,24.1,30.04,NNE,22,0.7,5.4,68,0.00,,,0.00,WX3IN1Plus v1.30,2013-03-24 13:04:00,
2013-03-24 09:09:00,34.4,24.7,30.04,NNE,15,1.9,3.5,67,0.00,,,0.00,WX3IN1Plus v1.30,2013-03-24 13:09:00,
2013-03-24 09:14:00,34.9,24.7,30.03,NE,50,1.9,4.2,66,0.00,,,0.00,WX3IN1Plus v1.30,2013-03-24 13:14:00,
2013-03-24 09:19:00,35.3,24.7,30.03,NNE,14,0.0,2.9,65,0.00,,,0.00,WX3IN1Plus v1.30,2013-03-24 13:19:00,
2013-03-24 09:24:00,36.0,24.7,30.02,NE,45,2.6,5.5,63,0.00,,,0.00,WX3IN1Plus v1.30,2013-03-24 13:24:00,
2013-03-24 09:29:00,36.6,24.7,30.01,NNE,29,3.4,5.0,62,0.00,,,0.00,WX3IN1Plus v1.30,2013-03-24 13:29:00,
2013-03-24 09:34:00,36.9,24.8,30.01,SE,125,3.9,7.4,61,0.00,,,0.00,WX3IN1Plus v1.30,2013-03-24 13:34:00,
2013-03-24 09:39:00,37.3,24.1,30.01,NE,47,4.9,7.1,59,0.00,,,0.00,WX3IN1Plus v1.30,2013-03-24 13:39:00,
2013-03-24 09:44:00,37.7,23.9,30.00,NNE,28,10.1,10.3,57,0.00,,,0.00,WX3IN1Plus v1.30,2013-03-24 13:44:00,
2013-03-24 09:49:00,38.0,24.1,30.00,NE,46,6.9,12.3,57,0.00,,,0.00,WX3IN1Plus v1.30,2013-03-24 13:49:00,
2013-03-24 09:54:00,38.3,24.7,30.00,East,84,5.7,7.7,57,0.00,,,0.00,WX3IN1Plus v1.30,2013-03-24 13:54:00,
2013-03-24 09:59:00,38.5,23.6,30.00,NE,56,4.2,10.3,55,0.00,,,0.00,WX3IN1Plus v1.30,2013-03-24 13:59:00,
2013-03-24 10:04:00,38.9,23.6,30.00,ENE,67,0.0,10.8,54,0.00,,,0.00,WX3IN1Plus v1.30,2013-03-24 14:04:00,
2013-03-24 10:09:00,39.2,23.9,30.00,NE,54,4.1,10.5,54,0.00,,,0.00,WX3IN1Plus v1.30,2013-03-24 14:09:00,
2013-03-24 10:14:00,39.1,22.9,30.00,NE,37,3.2,8.4,52,0.00,,,0.00,WX3IN1Plus v1.30,2013-03-24 14:14:00,
2013-03-24 10:19:00,39.4,23.9,30.01,NE,39,5.2,9.1,53,0.00,,,0.00,WX3IN1Plus v1.30,2013-03-24 14:19:00,
2013-03-24 10:25:00,39.5,23.4,30.00,NNE,32,0.0,7.3,52,0.00,,,0.00,WX3IN1Plus v1.30,2013-03-24 14:25:00,
2013-03-24 10:30:00,39.8,23.2,29.99,North,355,7.6,8.8,51,0.00,,,0.00,WX3IN1Plus v1.30,2013-03-24 14:30:00,
2013-03-24 10:35:00,39.7,22.9,29.99,NNE,32,7.5,8.5,51,0.00,,,0.00,WX3IN1Plus v1.30,2013-03-24 14:35:00,
2013-03-24 10:40:00,40.0,23.4,29.98,East,82,2.9,9.6,51,0.00,,,0.00,WX3IN1Plus v1.30,2013-03-24 14:40:00,
2013-03-24 10:45:00,40.3,23.2,29.98,NE,39,1.7,6.8,50,0.00,,,0.00,WX3IN1Plus v1.30,2013-03-24 14:45:00,
2013-03-24 10:50:00,40.3,23.2,29.98,WNW,285,0.0,7.6,50,0.00,,,0.00,WX3IN1Plus v1.30,2013-03-24 14:50:00,
2013-03-24 10:55:00,40.6,23.9,29.98,SE,143,1.0,4.7,51,0.00,,,0.00,WX3IN1Plus v1.30,2013-03-24 14:55:00,
2013-03-24 11:00:00,40.9,23.2,29.97,East,90,3.4,9.5,49,0.00,,,0.00,WX3IN1Plus v1.30,2013-03-24 15:00:00,
2013-03-24 11:05:00,41.2,23.6,29.97,ENE,67,1.1,6.7,49,0.00,,,0.00,WX3IN1Plus v1.30,2013-03-24 15:05:00,
2013-03-24 11:10:00,40.9,23.6,29.97,North,11,7.4,8.8,50,0.00,,,0.00,WX3IN1Plus v1.30,2013-03-24 15:10:00,
2013-03-24 11:15:00,41.3,24.1,29.97,SSE,164,2.7,7.5,50,0.00,,,0.00,WX3IN1Plus v1.30,2013-03-24 15:15:00,
2013-03-24 11:20:00,41.7,23.9,29.97,ENE,61,2.9,6.1,49,0.00,,,0.00,WX3IN1Plus v1.30,2013-03-24 15:20:00,
2013-03-24 11:25:00,42.0,23.2,29.97,East,84,2.0,8.3,47,0.00,,,0.00,WX3IN1Plus v1.30,2013-03-24 15:25:00,
2013-03-24 11:30:00,42.0,24.3,29.97,SSE,151,0.0,4.5,49,0.00,,,0.00,WX3IN1Plus v1.30,2013-03-24 15:30:00,
2013-03-24 11:35:00,42.0,24.3,29.97,SE,137,0.0,6.7,49,0.00,,,0.00,WX3IN1Plus v1.30,2013-03-24 15:35:00,
2013-03-24 11:40:00,42.1,24.3,29.97,SSE,164,0.0,7.7,49,0.00,,,0.00,WX3IN1Plus v1.30,2013-03-24 15:40:00,
2013-03-24 11:45:00,42.3,24.7,29.97,ENE,77,0.0,3.4,49,0.00,,,0.00,WX3IN1Plus v1.30,2013-03-24 15:45:00,
2013-03-24 11:50:00,42.1,23.9,29.97,South,177,0.0,4.3,48,0.00,,,0.00,WX3IN1Plus v1.30,2013-03-24 15:50:00,
2013-03-24 11:55:00,42.2,24.3,29.97,ESE,102,0.0,3.9,49,0.00,,,0.00,WX3IN1Plus v1.30,2013-03-24 15:55:00,
2013-03-24 12:00:00,42.4,25.0,29.97,SSW,196,2.7,2.7,50,0.00,,,0.00,WX3IN1Plus v1.30,2013-03-24 16:00:00,
2013-03-24 12:05:00,42.5,24.3,29.97,East,94,3.7,5.9,48,0.00,,,0.00,WX3IN1Plus v1.30,2013-03-24 16:05:00,
2013-03-24 12:10:00,42.2,23.9,29.97,ESE,115,0.0,5.4,48,0.00,,,0.00,WX3IN1Plus v1.30,2013-03-24 16:10:00,
2013-03-24 12:15:00,42.1,23.9,29.97,NNE,33,3.9,5.8,48,0.00,,,0.00,WX3IN1Plus v1.30,2013-03-24 16:15:00,
2013-03-24 12:20:00,42.0,24.3,29.96,ESE,112,0.0,7.3,49,0.00,,,0.00,WX3IN1Plus v1.30,2013-03-24 16:20:00,
2013-03-24 12:25:00,42.0,23.9,29.95,North,11,1.6,5.0,48,0.00,,,0.00,WX3IN1Plus v1.30,2013-03-24 16:25:00,
2013-03-24 12:30:00,42.2,23.9,29.95,NNE,16,0.0,6.7,48,0.00,,,0.00,WX3IN1Plus v1.30,2013-03-24 16:30:00,
2013-03-24 12:35:00,41.8,24.1,29.94,ENE,77,0.0,5.4,49,0.00,,,0.00,WX3IN1Plus v1.30,2013-03-24 16:35:00,
2013-03-24 12:40:00,35.0,14.8,29.93,East,94,5.2,6.8,43,0.00,,,0.00,WX3IN1Plus v1.30,2013-03-24 16:40:00,
2013-03-24 12:45:00,41.8,23.6,29.93,ENE,74,3.6,7.8,48,0.00,,,0.00,WX3IN1Plus v1.30,2013-03-24 16:45:00,
2013-03-24 12:50:00,34.1,13.1,29.92,South,171,3.1,4.6,42,0.00,,,0.00,WX3IN1Plus v1.30,2013-03-24 16:50:00,
2013-03-24 12:55:00,41.9,24.3,29.92,ENE,74,0.0,4.7,49,0.00,,,0.00,WX3IN1Plus v1.30,2013-03-24 16:55:00,
2013-03-24 13:00:00,33.8,12.8,29.92,SE,127,3.6,7.4,41,0.00,,,0.00,WX3IN1Plus v1.30,2013-03-24 17:00:00,
2013-03-24 13:05:00,34.4,13.1,29.91,NNE,29,0.8,5.2,41,0.00,,,0.00,WX3IN1Plus v1.30,2013-03-24 17:05:00,
2013-03-24 13:10:00,41.8,23.6,29.91,NE,46,2.6,6.7,48,0.00,,,0.00,WX3IN1Plus v1.30,2013-03-24 17:10:00,
2013-03-24 13:15:00,41.9,23.9,29.90,NE,42,4.1,7.2,48,0.00,,,0.00,WX3IN1Plus v1.30,2013-03-24 17:15:00,
2013-03-24 13:20:00,41.5,23.6,29.90,East,98,0.0,5.5,49,0.00,,,0.00,WX3IN1Plus v1.30,2013-03-24 17:20:00,
2013-03-24 13:25:00,41.7,23.9,29.89,East,98,0.0,0.0,49,0.00,,,0.00,WX3IN1Plus v1.30,2013-03-24 17:25:00,
2013-03-24 13:30:00,41.8,24.7,29.88,South,182,0.0,3.5,50,0.00,,,0.00,WX3IN1Plus v1.30,2013-03-24 17:30:00,
2013-03-24 13:35:00,42.2,24.8,29.88,SSE,167,5.1,5.9,50,0.00,,,0.00,WX3IN1Plus v1.30,2013-03-24 17:35:00,
2013-03-24 13:40:00,42.5,24.3,29.88,SE,126,0.0,5.1,48,0.00,,,0.00,WX3IN1Plus v1.30,2013-03-24 17:40:00,
2013-03-24 13:45:00,42.6,24.3,29.87,SSW,195,0.0,2.7,48,0.00,,,0.00,WX3IN1Plus v1.30,2013-03-24 17:45:00,
2013-03-24 13:50:00,42.8,25.0,29.87,SE,136,0.0,5.5,49,0.00,,,0.00,WX3IN1Plus v1.30,2013-03-24 17:50:00,
2013-03-24 13:55:00,43.1,25.4,29.86,ESE,118,1.3,6.7,49,0.00,,,0.00,WX3IN1Plus v1.30,2013-03-24 17:55:00,
2013-03-24 14:00:00,43.1,24.8,29.86,SE,146,1.6,8.0,48,0.00,,,0.00,WX3IN1Plus v1.30,2013-03-24 18:00:00,
2013-03-24 14:05:00,43.2,24.8,29.85,South,170,1.9,4.8,48,0.00,,,0.00,WX3IN1Plus v1.30,2013-03-24 18:05:00,
2013-03-24 14:10:00,43.4,25.0,29.85,WSW,248,0.0,6.2,48,0.00,,,0.00,WX3IN1Plus v1.30,2013-03-24 18:10:00,
2013-03-24 14:15:00,43.1,24.8,29.84,East,101,0.0,4.5,48,0.00,,,0.00,WX3IN1Plus v1.30,2013-03-24 18:15:00,
2013-03-24 14:20:00,43.4,25.0,29.84,East,101,4.4,4.4,48,0.00,,,0.00,WX3IN1Plus v1.30,2013-03-24 18:20:00,
2013-03-24 14:25:00,43.6,24.7,29.84,SSW,198,0.0,6.4,47,0.00,,,0.00,WX3IN1Plus v1.30,2013-03-24 18:25:00,
2013-03-24 14:30:00,43.4,23.9,29.84,ENE,73,0.0,4.5,46,0.00,,,0.00,WX3IN1Plus v1.30,2013-03-24 18:30:00,
2013-03-24 14:35:00,43.3,24.1,29.83,NE,43,0.0,5.8,47,0.00,,,0.00,WX3IN1Plus v1.30,2013-03-24 18:35:00,
2013-03-24 14:41:00,43.1,24.8,29.83,East,82,0.0,5.7,48,0.00,,,0.00,WX3IN1Plus v1.30,2013-03-24 18:41:00,
2013-03-24 14:46:00,43.2,24.1,29.83,West,261,3.6,4.7,47,0.00,,,0.00,WX3IN1Plus v1.30,2013-03-24 18:46:00,
2013-03-24 14:51:00,43.5,24.3,29.82,SE,144,0.9,6.8,47,0.00,,,0.00,WX3IN1Plus v1.30,2013-03-24 18:51:00,
2013-03-24 14:56:00,43.4,24.3,29.81,East,87,0.0,5.0,47,0.00,,,0.00,WX3IN1Plus v1.30,2013-03-24 18:56:00,
2013-03-24 15:01:00,43.6,24.7,29.81,SE,140,3.0,7.5,47,0.00,,,0.00,WX3IN1Plus v1.30,2013-03-24 19:01:00,
2013-03-24 15:06:00,43.9,24.8,29.81,SSE,168,2.6,5.8,47,0.00,,,0.00,WX3IN1Plus v1.30,2013-03-24 19:06:00,
2013-03-24 15:11:00,43.9,23.9,29.80,SSE,150,1.9,8.7,45,0.00,,,0.00,WX3IN1Plus v1.30,2013-03-24 19:11:00,
2013-03-24 15:16:00,43.9,24.3,29.80,ESE,102,0.0,5.4,46,0.00,,,0.00,WX3IN1Plus v1.30,2013-03-24 19:16:00,
2013-03-24 15:21:00,43.6,24.1,29.80,ENE,70,1.6,5.7,46,0.00,,,0.00,WX3IN1Plus v1.30,2013-03-24 19:21:00,
2013-03-24 15:26:00,43.7,24.7,29.80,SSW,194,0.0,4.4,47,0.00,,,0.00,WX3IN1Plus v1.30,2013-03-24 19:26:00,
2013-03-24 15:31:00,43.5,23.9,29.80,SSE,161,3.7,8.1,46,0.00,,,0.00,WX3IN1Plus v1.30,2013-03-24 19:31:00,
2013-03-24 15:36:00,43.5,23.9,29.79,East,94,0.0,5.9,46,0.00,,,0.00,WX3IN1Plus v1.30,2013-03-24 19:36:00,
2013-03-24 15:41:00,43.3,23.6,29.79,East,84,0.0,6.1,46,0.00,,,0.00,WX3IN1Plus v1.30,2013-03-24 19:41:00,
2013-03-24 15:46:00,43.0,23.6,29.79,East,84,1.9,3.8,46,0.00,,,0.00,WX3IN1Plus v1.30,2013-03-24 19:46:00,
2013-03-24 15:51:00,42.9,23.4,29.80,NNE,25,3.9,6.2,46,0.00,,,0.00,WX3IN1Plus v1.30,2013-03-24 19:51:00,
2013-03-24 15:56:00,42.7,23.6,29.79,ENE,63,0.0,6.5,47,0.00,,,0.00,WX3IN1Plus v1.30,2013-03-24 19:56:00,
2013-03-24 16:01:00,42.4,23.4,29.79,ENE,63,0.0,0.0,47,0.00,,,0.00,WX3IN1Plus v1.30,2013-03-24 20:01:00,
2013-03-24 16:06:00,42.4,23.4,29.79,ENE,77,0.0,3.4,47,0.00,,,0.00,WX3IN1Plus v1.30,2013-03-24 20:06:00,
2013-03-24 16:12:00,42.4,23.4,29.79,NNE,33,4.7,5.9,47,0.00,,,0.00,WX3IN1Plus v1.30,2013-03-24 20:12:00,
2013-03-24 16:17:00,42.2,23.2,29.79,ENE,75,0.0,6.7,47,0.00,,,0.00,WX3IN1Plus v1.30,2013-03-24 20:17:00,
2013-03-24 16:22:00,41.9,23.2,29.79,ESE,113,0.0,5.9,47,0.00,,,0.00,WX3IN1Plus v1.30,2013-03-24 20:22:00,
2013-03-24 16:27:00,41.9,23.9,29.79,ESE,113,0.0,0.0,48,0.00,,,0.00,WX3IN1Plus v1.30,2013-03-24 20:27:00,
2013-03-24 16:32:00,41.9,23.9,29.79,ESE,113,0.0,0.0,48,0.00,,,0.00,WX3IN1Plus v1.30,2013-03-24 20:32:00,
2013-03-24 16:37:00,41.8,23.6,29.78,ESE,113,0.0,0.0,48,0.00,,,0.00,WX3IN1Plus v1.30,2013-03-24 20:37:00,
2013-03-24 16:42:00,41.9,23.9,29.78,East,87,1.4,4.6,48,0.00,,,0.00,WX3IN1Plus v1.30,2013-03-24 20:42:00,
2013-03-24 16:47:00,41.9,23.2,29.78,NNE,26,3.7,5.5,47,0.00,,,0.00,WX3IN1Plus v1.30,2013-03-24 20:47:00,
2013-03-24 16:52:00,42.0,23.9,29.78,ENE,66,0.0,7.7,48,0.00,,,0.00,WX3IN1Plus v1.30,2013-03-24 20:52:00,
2013-03-24 16:57:00,41.9,23.9,29.78,NNE,16,0.0,7.1,48,0.00,,,0.00,WX3IN1Plus v1.30,2013-03-24 20:57:00,
2013-03-24 17:02:00,41.8,23.6,29.78,NE,46,0.0,4.1,48,0.00,,,0.00,WX3IN1Plus v1.30,2013-03-24 21:02:00,
2013-03-24 17:07:00,41.7,23.4,29.79,East,97,0.0,5.9,48,0.00,,,0.00,WX3IN1Plus v1.30,2013-03-24 21:07:00,
2013-03-24 17:12:00,41.9,23.9,29.79,NE,37,0.0,4.3,48,0.00,,,0.00,WX3IN1Plus v1.30,2013-03-24 21:12:00,
2013-03-24 17:18:00,41.7,23.4,29.78,ENE,66,0.0,5.4,48,0.00,,,0.00,WX3IN1Plus v1.30,2013-03-24 21:18:00,
2013-03-24 17:23:00,41.6,23.4,29.78,NNE,32,1.8,4.7,48,0.00,,,0.00,WX3IN1Plus v1.30,2013-03-24 21:23:00,
2013-03-24 17:28:00,41.6,23.9,29.78,NNE,23,0.0,2.2,49,0.00,,,0.00,WX3IN1Plus v1.30,2013-03-24 21:28:00,
2013-03-24 17:33:00,41.7,23.9,29.79,NNE,23,0.0,0.0,49,0.00,,,0.00,WX3IN1Plus v1.30,2013-03-24 21:33:00,
2013-03-24 17:38:00,41.5,23.2,29.79,ENE,70,1.3,3.7,48,0.00,,,0.00,WX3IN1Plus v1.30,2013-03-24 21:38:00,
2013-03-24 17:43:00,41.6,23.4,29.79,ESE,111,0.0,2.8,48,0.00,,,0.00,WX3IN1Plus v1.30,2013-03-24 21:43:00,
2013-03-24 17:48:00,41.5,23.6,29.79,ESE,111,0.0,0.0,49,0.00,,,0.00,WX3IN1Plus v1.30,2013-03-24 21:48:00,
2013-03-24 17:53:00,41.4,23.6,29.80,ESE,111,0.0,0.0,49,0.00,,,0.00,WX3IN1Plus v1.30,2013-03-24 21:53:00,
2013-03-24 17:58:00,41.4,23.6,29.80,ESE,111,0.0,0.0,49,0.00,,,0.00,WX3IN1Plus v1.30,2013-03-24 21:58:00,
2013-03-24 18:03:00,41.3,23.6,29.80,ESE,111,0.0,0.0,49,0.00,,,0.00,WX3IN1Plus v1.30,2013-03-24 22:03:00,
2013-03-24 18:08:00,41.3,23.6,29.80,ESE,111,0.0,0.0,49,0.00,,,0.00,WX3IN1Plus v1.30,2013-03-24 22:08:00,
2013-03-24 18:13:00,41.4,23.6,29.80,ESE,111,0.0,0.0,49,0.00,,,0.00,WX3IN1Plus v1.30,2013-03-24 22:13:00,
2013-03-24 18:18:00,41.4,24.1,29.80,ESE,111,0.0,0.0,50,0.00,,,0.00,WX3IN1Plus v1.30,2013-03-24 22:18:00,
2013-03-24 18:23:00,41.2,24.7,29.80,ESE,111,0.0,0.0,51,0.00,,,0.00,WX3IN1Plus v1.30,2013-03-24 22:23:00,
2013-03-24 18:28:00,41.1,24.3,29.79,ESE,111,0.0,0.0,51,0.00,,,0.00,WX3IN1Plus v1.30,2013-03-24 22:28:00,
2013-03-24 18:33:00,41.2,24.7,29.79,ESE,111,0.0,0.0,51,0.00,,,0.00,WX3IN1Plus v1.30,2013-03-24 22:33:00,
2013-03-24 18:38:00,41.2,24.7,29.79,ESE,111,0.0,0.0,51,0.00,,,0.00,WX3IN1Plus v1.30,2013-03-24 22:38:00,
2013-03-24 18:43:00,41.3,24.7,29.79,ESE,111,0.0,0.0,51,0.00,,,0.00,WX3IN1Plus v1.30,2013-03-24 22:43:00,
2013-03-24 18:48:00,41.0,24.3,29.79,ESE,111,0.0,0.0,51,0.00,,,0.00,WX3IN1Plus v1.30,2013-03-24 22:48:00,
2013-03-24 18:53:00,40.9,24.7,29.79,ESE,111,0.0,0.0,52,0.00,,,0.00,WX3IN1Plus v1.30,2013-03-24 22:53:00,
2013-03-24 18:58:00,41.0,24.8,29.79,SSE,154,0.0,1.1,52,0.00,,,0.00,WX3IN1Plus v1.30,2013-03-24 22:58:00,
2013-03-24 19:03:00,40.9,24.7,29.79,SSE,154,0.0,0.0,52,0.00,,,0.00,WX3IN1Plus v1.30,2013-03-24 23:03:00,
2013-03-24 19:08:00,40.8,25.0,29.79,WSW,258,3.7,6.8,53,0.00,,,0.00,WX3IN1Plus v1.30,2013-03-24 23:08:00,
2013-03-24 19:13:00,40.7,26.3,29.79,WSW,257,5.9,7.0,56,0.00,,,0.00,WX3IN1Plus v1.30,2013-03-24 23:13:00,
2013-03-24 19:18:00,40.5,27.0,29.79,SW,229,4.2,6.0,58,0.00,,,0.00,WX3IN1Plus v1.30,2013-03-24 23:18:00,
2013-03-24 19:23:00,40.2,27.9,29.79,West,268,1.3,9.8,61,0.00,,,0.00,WX3IN1Plus v1.30,2013-03-24 23:23:00,
2013-03-24 19:28:00,39.6,28.3,29.79,SSE,164,2.2,6.5,64,0.00,,,0.00,WX3IN1Plus v1.30,2013-03-24 23:28:00,
2013-03-24 19:33:00,39.4,28.6,29.79,SSW,210,2.0,6.2,65,0.00,,,0.00,WX3IN1Plus v1.30,2013-03-24 23:33:00,
2013-03-24 19:38:00,39.4,29.0,29.79,WSW,240,3.4,7.5,66,0.00,,,0.00,WX3IN1Plus v1.30,2013-03-24 23:38:00,
2013-03-24 19:43:00,38.8,28.6,29.79,SSW,202,2.9,7.8,67,0.00,,,0.00,WX3IN1Plus v1.30,2013-03-24 23:43:00,
2013-03-24 19:48:00,38.8,29.0,29.79,South,184,3.2,8.3,68,0.00,,,0.00,WX3IN1Plus v1.30,2013-03-24 23:48:00,
2013-03-24 19:53:00,38.6,29.2,29.79,SSW,201,5.1,7.7,69,0.00,,,0.00,WX3IN1Plus v1.30,2013-03-24 23:53:00,
2013-03-24 19:58:00,38.5,29.3,29.79,SW,219,2.9,9.5,70,0.00,,,0.00,WX3IN1Plus v1.30,2013-03-24 23:58:00,
2013-03-24 20:04:00,38.2,29.9,29.79,SW,216,1.1,6.9,72,0.00,,,0.00,WX3IN1Plus v1.30,2013-03-25 00:04:00,
2013-03-24 20:09:00,38.0,29.7,29.79,SW,216,4.8,8.3,72,0.00,,,0.00,WX3IN1Plus v1.30,2013-03-25 00:09:00,
2013-03-24 20:14:00,37.7,29.3,29.79,WSW,247,3.3,7.3,72,0.00,,,0.00,WX3IN1Plus v1.30,2013-03-25 00:14:00,
2013-03-24 20:19:00,37.7,30.2,29.79,WSW,243,4.2,10.8,74,0.00,,,0.00,WX3IN1Plus v1.30,2013-03-25 00:19:00,
2013-03-24 20:24:00,37.4,30.6,29.79,WSW,246,9.1,10.0,76,0.00,,,0.00,WX3IN1Plus v1.30,2013-03-25 00:24:00,
2013-03-24 20:29:00,37.1,31.0,29.79,WSW,250,2.7,10.3,78,0.00,,,0.00,WX3IN1Plus v1.30,2013-03-25 00:29:00,
2013-03-24 20:34:00,36.8,31.1,29.79,SSW,205,1.9,8.5,80,0.00,,,0.00,WX3IN1Plus v1.30,2013-03-25 00:34:00,
2013-03-24 20:39:00,36.5,31.1,29.78,WSW,237,3.6,8.3,81,0.00,,,0.00,WX3IN1Plus v1.30,2013-03-25 00:39:00,
2013-03-24 20:44:00,36.0,31.0,29.78,West,262,1.6,9.8,82,0.00,,,0.00,WX3IN1Plus v1.30,2013-03-25 00:44:00,
2013-03-24 20:49:00,36.1,31.1,29.78,WSW,250,6.4,7.9,83,0.00,,,0.00,WX3IN1Plus v1.30,2013-03-25 00:49:00,
2013-03-24 20:54:00,35.9,31.7,29.78,SSW,208,3.7,7.0,84,0.00,,,0.00,WX3IN1Plus v1.30,2013-03-25 00:54:00,
2013-03-24 20:59:00,35.7,31.3,29.78,WSW,244,5.1,6.4,84,0.00,,,0.00,WX3IN1Plus v1.30,2013-03-25 00:59:00,
2013-03-24 21:04:00,35.7,31.7,29.77,West,268,5.8,8.3,85,0.00,,,0.00,WX3IN1Plus v1.30,2013-03-25 01:04:00,
2013-03-24 21:09:00,35.3,31.1,29.78,SW,234,2.9,6.8,85,0.00,,,0.00,WX3IN1Plus v1.30,2013-03-25 01:09:00,
2013-03-24 21:14:00,35.6,31.9,29.77,WSW,248,0.0,5.5,86,0.00,,,0.00,WX3IN1Plus v1.30,2013-03-25 01:14:00,
2013-03-24 21:19:00,35.6,31.9,29.76,South,175,0.0,2.4,86,0.00,,,0.00,WX3IN1Plus v1.30,2013-03-25 01:19:00,
2013-03-24 21:24:00,35.5,31.7,29.77,SSW,194,2.4,4.7,86,0.00,,,0.00,WX3IN1Plus v1.30,2013-03-25 01:24:00,
2013-03-24 21:29:00,35.5,31.7,29.76,SSE,151,0.0,4.2,86,0.00,,,0.00,WX3IN1Plus v1.30,2013-03-25 01:29:00,
2013-03-24 21:34:00,35.6,31.9,29.76,SE,142,0.0,1.8,86,0.00,,,0.00,WX3IN1Plus v1.30,2013-03-25 01:34:00,
2013-03-24 21:39:00,35.6,31.9,29.75,South,185,0.0,5.2,86,0.00,,,0.00,WX3IN1Plus v1.30,2013-03-25 01:39:00,
2013-03-24 21:44:00,35.5,31.7,29.74,SSE,168,2.7,5.5,86,0.00,,,0.00,WX3IN1Plus v1.30,2013-03-25 01:44:00,
2013-03-24 21:49:00,35.5,31.7,29.73,ESE,119,0.0,4.4,86,0.00,,,0.00,WX3IN1Plus v1.30,2013-03-25 01:49:00,
2013-03-24 21:55:00,35.7,31.9,29.74,South,174,0.0,2.9,86,0.00,,,0.00,WX3IN1Plus v1.30,2013-03-25 01:55:00,
2013-03-24 22:00:00,35.7,31.9,29.74,SSE,151,0.0,1.1,86,0.00,,,0.00,WX3IN1Plus v1.30,2013-03-25 02:00:00,
2013-03-24 22:05:00,35.7,31.9,29.74,SE,133,0.0,1.9,86,0.00,,,0.00,WX3IN1Plus v1.30,2013-03-25 02:05:00,
2013-03-24 22:10:00,35.6,31.9,29.74,SE,133,0.0,0.0,86,0.00,,,0.00,WX3IN1Plus v1.30,2013-03-25 02:10:00,
2013-03-24 22:15:00,35.8,32.0,29.74,SE,133,0.0,0.0,86,0.00,,,0.00,WX3IN1Plus v1.30,2013-03-25 02:15:00,
2013-03-24 22:20:00,35.9,32.0,29.75,SE,133,0.0,0.0,86,0.00,,,0.00,WX3IN1Plus v1.30,2013-03-25 02:20:00,
2013-03-24 22:25:00,35.9,31.9,29.75,SE,133,0.0,0.0,85,0.00,,,0.00,WX3IN1Plus v1.30,2013-03-25 02:25:00,
2013-03-24 22:30:00,35.7,31.7,29.75,SE,133,0.0,0.0,85,0.00,,,0.00,WX3IN1Plus v1.30,2013-03-25 02:30:00,
2013-03-24 22:35:00,35.7,31.7,29.75,SE,133,0.0,0.0,85,0.00,,,0.00,WX3IN1Plus v1.30,2013-03-25 02:35:00,
2013-03-24 22:40:00,35.7,31.7,29.75,SE,133,0.0,0.0,85,0.00,,,0.00,WX3IN1Plus v1.30,2013-03-25 02:40:00,
2013-03-24 22:45:00,35.9,31.9,29.75,SE,133,0.0,0.0,85,0.00,,,0.00,WX3IN1Plus v1.30,2013-03-25 02:45:00,
2013-03-24 22:50:00,35.9,31.9,29.74,SE,133,0.0,0.0,85,0.00,,,0.00,WX3IN1Plus v1.30,2013-03-25 02:50:00,
2013-03-24 22:55:00,35.7,31.7,29.74,SE,133,0.0,0.0,85,0.00,,,0.00,WX3IN1Plus v1.30,2013-03-25 02:55:00,
2013-03-24 23:00:00,35.7,31.7,29.74,SE,133,0.0,0.0,85,0.00,,,0.00,WX3IN1Plus v1.30,2013-03-25 03:00:00,
2013-03-24 23:05:00,35.8,31.9,29.75,SE,133,0.0,0.0,85,0.00,,,0.00,WX3IN1Plus v1.30,2013-03-25 03:05:00,
2013-03-24 23:10:00,35.9,31.9,29.74,SE,133,0.0,0.0,85,0.00,,,0.00,WX3IN1Plus v1.30,2013-03-25 03:10:00,
2013-03-24 23:15:00,36.0,31.9,29.74,SE,133,0.0,0.0,85,0.00,,,0.00,WX3IN1Plus v1.30,2013-03-25 03:15:00,
2013-03-24 23:20:00,35.8,32.0,29.74,SE,133,0.0,0.0,86,0.00,,,0.00,WX3IN1Plus v1.30,2013-03-25 03:20:00,
2013-03-24 23:25:00,35.7,31.9,29.75,SE,133,0.0,0.0,86,0.00,,,0.00,WX3IN1Plus v1.30,2013-03-25 03:25:00,
2013-03-24 23:30:00,35.8,32.0,29.75,SE,127,0.0,1.9,86,0.00,,,0.00,WX3IN1Plus v1.30,2013-03-25 03:30:00,
2013-03-24 23:35:00,35.8,32.0,29.75,SE,130,2.1,3.4,86,0.00,,,0.00,WX3IN1Plus v1.30,2013-03-25 03:35:00,
2013-03-24 23:40:00,35.9,32.0,29.74,SE,135,0.0,2.7,86,0.00,,,0.00,WX3IN1Plus v1.30,2013-03-25 03:40:00,
2013-03-24 23:45:00,35.7,31.9,29.74,SSE,158,2.4,5.9,86,0.00,,,0.00,WX3IN1Plus v1.30,2013-03-25 03:45:00,
2013-03-24 23:50:00,35.8,31.9,29.74,SSE,153,2.6,3.4,85,0.00,,,0.00,WX3IN1Plus v1.30,2013-03-25 03:50:00,
2013-03-24 23:55:00,35.8,32.0,29.73,SE,133,0.0,6.4,86,0.00,,,0.00,WX3IN1Plus v1.30,2013-03-25 03:55:00,